Harrison, AR

4:19 AM CDT on June 24, 2017 (GMT -0500)
Boone County

Weather History for KHRO - April, 2012

Change the Weather History Date:

Friday, April 20, 2012

  Actual Average Record
Temperature  
Mean Temperature 53 °F 59 °F  
Max Temperature 65 °F 70 °F 92 °F (1987)
Min Temperature 41 °F 48 °F 28 °F (1956)
Degree Days  
Heating Degree Days 12 7  
Month to date heating degree days 100 185  
Since 1 July heating degree days 3015 3865  
Cooling Degree Days 0 1  
Month to date cooling degree days 33 20  
Year to date cooling degree days 89 26  
Growing Degree Days 3 (Base 50)    
Moisture  
Dew Point 47 °F    
Average Humidity 75    
Maximum Humidity 93    
Minimum Humidity 56    
Precipitation  
Precipitation 0.10 in 0.16 in 3.07 in (1977)
Month to date precipitation 1.28 2.69  
Year to date precipitation 12.54 11.68  
Snow  
Snow 0.00 in 0.00 in - ()
Month to date snowfall 0.0 0.3  
Since 1 July snowfall 2.1 11.5  
Snow Depth 0.00 in    
Sea Level Pressure  
Sea Level Pressure 29.90 in    
Wind  
Wind Speed 7 mph (NW)    
Max Wind Speed 16 mph    
Max Gust Speed 24 mph    
Visibility 8 miles    
Events Rain    
T = Trace of Precipitation, MM = Missing Value Source: NWS Daily Summary

Daily Weather History Graph

Daily Weather History Graph

Search for Another Location

Airport or City:

Trip Planner

Search our weather history database for the weather conditions in past years. The results will help you decide how hot, cold, wet, or windy it might be!

Date:

Astronomy

Apr. 20, 2012 Rise Set
Actual Time 6:32 AM CDT 7:51 PM CDT
Civil Twilight 6:05 AM CDT 8:18 PM CDT
Nautical Twilight 5:33 AM CDT 8:50 PM CDT
Astronomical Twilight 4:59 AM CDT 9:23 PM CDT
Moon 5:55 AM CDT (4/20) 7:35 PM CDT (4/20)
Length of Visible Light 14h 12m
Length of Day
13h 19m
Waning Crescent, 0% of the Moon is Illuminated
Apr 20
Waning Crescent
Apr 21
New
Apr 29
First Quarter
May 5
Full
May 12
Last Quarter

Hourly Weather History & Observations

Time (CDT) Temp. Windchill Dew Point Humidity Pressure Visibility Wind Dir Wind Speed Gust Speed Precip Events Conditions
12:53 AM 57.0 °F - 48.0 °F 72% 29.77 in 10.0 mi SSE 5.8 mph - N/A   Clear
1:53 AM 60.1 °F - 46.9 °F 62% 29.76 in 10.0 mi SSW 4.6 mph - N/A   Clear
2:53 AM 64.0 °F - 48.9 °F 58% 29.75 in 10.0 mi SW 3.5 mph - N/A   Overcast
3:53 AM 64.0 °F - 48.9 °F 58% 29.75 in 10.0 mi WNW 4.6 mph - N/A   Overcast
4:53 AM 60.1 °F - 50.0 °F 69% 29.77 in 10.0 mi Calm Calm - N/A   Partly Cloudy
5:53 AM 59.0 °F - 53.1 °F 81% 29.78 in 10.0 mi Calm Calm - 0.00 in Rain Light Rain
6:53 AM 57.2 °F - 55.4 °F 94% 29.83 in 8.0 mi WSW 3.5 mph - N/A Rain Light Rain
7:53 AM 57.0 °F - 55.9 °F 96% 29.81 in 4.0 mi Calm Calm - 0.06 in Rain Light Rain
8:07 AM 57.2 °F - 55.4 °F 94% 29.85 in 8.0 mi WNW 3.5 mph - 0.00 in Rain Light Rain
8:22 AM 57.2 °F - 55.4 °F 94% 29.85 in 7.0 mi NNW 10.4 mph - 0.00 in Rain Light Rain
8:36 AM 55.4 °F - 53.6 °F 94% 29.86 in 9.0 mi WNW 12.7 mph 18.4 mph 0.01 in Rain Light Rain
8:53 AM 53.1 °F - 52.0 °F 96% 29.86 in 10.0 mi NW 12.7 mph 21.9 mph 0.01 in Rain Light Rain
9:01 AM 51.8 °F - 51.8 °F 100% 29.88 in 9.0 mi NW 11.5 mph 21.9 mph 0.00 in   Overcast
9:49 AM 51.8 °F - 48.2 °F 88% 29.89 in 2.5 mi NNW 11.5 mph 18.4 mph 0.00 in Rain Light Rain
9:53 AM 50.0 °F - 48.9 °F 96% 29.88 in 2.5 mi NNW 12.7 mph 18.4 mph 0.00 in Rain Light Rain
10:00 AM 50.0 °F - 48.2 °F 94% 29.91 in 2.0 mi NW 9.2 mph 20.7 mph 0.00 in Rain Light Rain
10:20 AM 50.0 °F - 48.2 °F 94% 29.92 in 3.0 mi NW 15.0 mph 24.2 mph 0.00 in   Overcast
10:34 AM 48.2 °F - 48.2 °F 100% 29.93 in 5.0 mi NW 13.8 mph 23.0 mph 0.00 in   Overcast
10:53 AM 48.9 °F - 48.0 °F 97% 29.93 in 3.0 mi NNW 10.4 mph 20.7 mph 0.00 in   Overcast
11:24 AM 48.2 °F - 46.4 °F 93% 29.95 in 6.0 mi NW 8.1 mph 16.1 mph N/A   Overcast
11:53 AM 48.2 °F - 46.4 °F 93% 29.95 in 8.0 mi WNW 6.9 mph - N/A   Overcast
12:53 PM 50.0 °F - 45.0 °F 83% 29.94 in 10.0 mi NW 11.5 mph 20.7 mph N/A   Overcast
1:53 PM 50.0 °F - 45.0 °F 83% 29.94 in 10.0 mi NW 9.2 mph 17.3 mph N/A   Overcast
2:22 PM 50.0 °F - 44.6 °F 82% 29.96 in 10.0 mi NNW 11.5 mph 18.4 mph N/A   Overcast
2:53 PM 51.1 °F - 44.1 °F 77% 29.95 in 10.0 mi NNW 8.1 mph 18.4 mph N/A   Overcast
3:53 PM 50.0 °F - 44.1 °F 80% 29.94 in 10.0 mi NNW 13.8 mph 18.4 mph N/A   Overcast
4:53 PM 50.0 °F - 43.0 °F 77% 29.94 in 10.0 mi NNW 11.5 mph - N/A   Overcast
5:53 PM 50.0 °F - 43.0 °F 77% 29.95 in 10.0 mi NNW 11.5 mph 17.3 mph N/A   Overcast
6:53 PM 50.0 °F - 42.1 °F 74% 29.96 in 10.0 mi NNW 11.5 mph 19.6 mph N/A   Overcast
7:53 PM 48.9 °F - 41.0 °F 74% 29.97 in 10.0 mi NNW 9.2 mph 18.4 mph N/A   Overcast
8:53 PM 48.0 °F - 41.0 °F 77% 30.01 in 10.0 mi NNW 4.6 mph - N/A   Overcast
9:53 PM 46.0 °F 41.9 °F 39.9 °F 79% 30.03 in 10.0 mi NNW 8.1 mph 16.1 mph N/A   Scattered Clouds
10:53 PM 42.8 °F 40.1 °F 39.2 °F 87% 30.03 in 10.0 mi NW 4.6 mph - N/A   Clear
11:53 PM 42.1 °F 39.2 °F 39.0 °F 89% 30.04 in 10.0 mi WNW 4.6 mph - N/A   Clear